Location: Newark
(44.9333°N, 0.5667°E)
Time: 23:44:19
(UTC+00:00)

Envisat - Visible Passes

Search period start: 27 January 2021 00:00
Search period end: 06 February 2021 00:00
Orbit: 764 x 766 km, 98.1° (Epoch: 27 January)

Date Brightness Start Highest point End Pass type
(mag) Time Alt. Az. Time Alt. Az. Time Alt. Az.
27 Jan 4.8 05:02:28 10° NNE 05:07:00 32° E 05:11:31 10° SSE visible
27 Jan 3.6 06:41:27 10° N 06:46:01 34° WNW 06:50:34 10° SW visible
27 Jan 5.8 17:59:01 10° SW 18:02:52 21° W 18:06:43 10° NW visible
28 Jan 5.9 04:26:57 10° NE 04:29:50 15° E 04:32:42 10° ESE visible
28 Jan 2.9 06:04:18 10° N 06:09:23 72° WNW 06:14:26 10° SSW visible
29 Jan 3.8 05:27:33 10° NNE 05:32:33 54° E 05:37:30 10° S visible
29 Jan 6.3 18:26:32 10° WSW 18:28:34 12° W 18:30:38 10° WNW visible
30 Jan 5.2 04:51:18 10° NE 04:55:30 25° E 04:59:41 10° SSE visible
30 Jan 3.3 06:29:54 10° N 06:34:41 42° WNW 06:39:26 10° SW visible
30 Jan 5.5 17:47:06 10° SSW 17:51:21 27° W 17:55:37 10° NW visible
31 Jan 6.2 04:16:29 10° ENE 04:18:16 12° E 04:20:02 10° ESE visible
31 Jan 3.0 05:52:52 10° NNE 05:57:59 89° WNW 06:03:04 10° SSW visible
01 Feb 4.2 05:16:14 10° NNE 05:21:05 43° E 05:25:54 10° S visible
01 Feb 6.1 18:13:59 10° SW 18:17:01 16° W 18:20:03 10° NW visible
02 Feb 5.5 04:40:14 10° NE 04:43:59 20° E 04:47:43 10° SE visible
02 Feb 3.1 06:18:22 10° N 06:23:19 53° WNW 06:28:14 10° SSW visible
02 Feb 5.1 17:35:18 10° SSW 17:39:50 33° W 17:44:26 10° NNW visible
03 Feb 3.2 05:41:27 10° NNE 05:46:33 74° ESE 05:51:38 10° S visible
04 Feb 4.7 05:04:58 10° NNE 05:09:36 34° E 05:14:12 10° SSE visible
04 Feb 5.9 18:01:49 10° SW 18:05:29 20° W 18:09:09 10° NW visible
05 Feb 5.8 04:29:18 10° NE 04:32:27 16° E 04:35:35 10° SE visible
05 Feb 3.0 06:06:53 10° N 06:11:56 66° WNW 06:16:58 10° SSW visible
